Fort Wayne, IN

5:50 PM EDT on October 17, 2017 (GMT -0400)
Fort Wayne International

Weather History for KFWA - January, 2014

Change the Weather History Date:

Wednesday, January 15, 2014

  Actual Average Record
Temperature  
Mean Temperature 23 °F 25 °F  
Max Temperature 27 °F 32 °F 64 °F (1932)
Min Temperature 19 °F 17 °F -18 °F (1972)
Degree Days  
Heating Degree Days 42 40  
Month to date heating degree days 666 599  
Since 1 July heating degree days 3122 2927  
Cooling Degree Days 0 0  
Month to date cooling degree days 0 0  
Year to date cooling degree days 0 0  
Moisture  
Dew Point 15 °F    
Average Humidity 70    
Maximum Humidity 77    
Minimum Humidity 63    
Precipitation  
Precipitation T in 0.07 in 0.95 in (1950)
Month to date precipitation 1.86 1.17  
Year to date precipitation 1.86 1.17  
Snow  
Snow T in 0.30 in 4.50 in (1916)
Month to date snowfall 17.5 4.7  
Since 1 July snowfall 28.4 15.3  
Snow Depth 0.00 in    
Sea Level Pressure  
Sea Level Pressure 30.01 in    
Wind  
Wind Speed 15 mph (WSW)    
Max Wind Speed 26 mph    
Max Gust Speed 35 mph    
Visibility 9 miles    
Events Snow    
T = Trace of Precipitation, MM = Missing Value Source: NWS Daily Summary

Daily Weather History Graph

Daily Weather History Graph

Search for Another Location

Airport or City:

Trip Planner

Search our weather history database for the weather conditions in past years. The results will help you decide how hot, cold, wet, or windy it might be!

Date:

Astronomy

Jan. 15, 2014 Rise Set
Actual Time 8:03 AM EST 5:37 PM EST
Civil Twilight 7:33 AM EST 6:07 PM EST
Nautical Twilight 6:59 AM EST 6:41 PM EST
Astronomical Twilight 6:26 AM EST 7:14 PM EST
Moon 5:34 PM EST (1/15) 7:18 AM EST (1/15)
Length of Visible Light 10h 34m
Length of Day
9h 34m
Full, 100% of the Moon is Illuminated
Jan 15
Full
Jan 15
Full
Jan 24
Last Quarter
Jan 30
New
Feb 6
First Quarter

Hourly Weather History & Observations

Time (EST) Temp. Windchill Dew Point Humidity Pressure Visibility Wind Dir Wind Speed Gust Speed Precip Events Conditions
12:54 AM 27.0 °F 13.9 °F 17.1 °F 66% 29.86 in 10.0 mi WSW 18.4 mph 31.1 mph 0.00 in Snow Light Snow
1:54 AM 26.1 °F 11.6 °F 17.1 °F 69% 29.86 in 10.0 mi West 21.9 mph 27.6 mph 0.00 in Snow Light Snow
2:54 AM 24.1 °F 8.7 °F 16.0 °F 71% 29.89 in 10.0 mi West 23.0 mph 28.8 mph 0.00 in   Scattered Clouds
3:30 AM 24.8 °F 10.0 °F 15.8 °F 69% 29.88 in 10.0 mi WSW 21.9 mph 26.5 mph 0.00 in Snow Light Snow
3:54 AM 24.1 °F 9.4 °F 16.0 °F 71% 29.92 in 6.0 mi West 20.7 mph 27.6 mph 0.00 in Snow Light Snow
4:16 AM 24.8 °F 12.4 °F 15.8 °F 69% 29.90 in 9.0 mi West 15.0 mph - 0.00 in Snow Light Snow
4:54 AM 23.0 °F 8.7 °F 14.0 °F 68% 29.93 in 10.0 mi West 18.4 mph 25.3 mph 0.00 in Snow Light Snow
5:54 AM 23.0 °F 9.6 °F 15.1 °F 72% 29.95 in 10.0 mi West 16.1 mph 21.9 mph 0.00 in   Overcast
6:54 AM 21.9 °F 8.2 °F 16.0 °F 78% 29.97 in 10.0 mi WSW 16.1 mph 21.9 mph 0.00 in Snow Light Snow
7:28 AM 21.2 °F 9.5 °F 15.8 °F 80% 29.96 in 8.0 mi WSW 11.5 mph - 0.00 in Snow Light Snow
7:54 AM 21.9 °F 8.7 °F 15.1 °F 75% 30.00 in 5.0 mi WSW 15.0 mph 23.0 mph 0.00 in Snow Light Snow
8:54 AM 21.9 °F 9.2 °F 16.0 °F 78% 30.03 in 10.0 mi West 13.8 mph - 0.00 in   Mostly Cloudy
9:54 AM 23.0 °F 9.6 °F 16.0 °F 74% 30.06 in 10.0 mi West 16.1 mph - N/A   Mostly Cloudy
10:54 AM 23.0 °F 9.6 °F 16.0 °F 74% 30.07 in 8.0 mi West 16.1 mph - 0.00 in Snow Light Snow
11:41 AM 23.0 °F 10.1 °F 15.8 °F 74% 30.04 in 10.0 mi West 15.0 mph - 0.00 in   Mostly Cloudy
11:54 AM 23.0 °F 10.6 °F 16.0 °F 74% 30.07 in 10.0 mi West 13.8 mph - 0.00 in   Mostly Cloudy
12:54 PM 25.0 °F 14.8 °F 16.0 °F 69% 30.05 in 10.0 mi West 10.4 mph - 0.00 in   Mostly Cloudy
1:54 PM 26.1 °F 15.6 °F 15.1 °F 63% 30.03 in 10.0 mi WSW 11.5 mph - N/A   Scattered Clouds
2:42 PM 24.8 °F 14.0 °F 14.0 °F 64% 30.01 in 10.0 mi West 11.5 mph - N/A   Mostly Cloudy
2:54 PM 24.1 °F 12.0 °F 15.1 °F 69% 30.05 in 10.0 mi West 13.8 mph - N/A   Mostly Cloudy
3:54 PM 23.0 °F 10.1 °F 15.1 °F 72% 30.06 in 9.0 mi WSW 15.0 mph - 0.00 in Snow Light Snow
4:54 PM 23.0 °F 10.1 °F 14.0 °F 68% 30.08 in 8.0 mi WSW 15.0 mph - 0.00 in Snow Light Snow
5:54 PM 21.0 °F 9.9 °F 14.0 °F 74% 30.09 in 8.0 mi WSW 10.4 mph - 0.00 in Snow Light Snow
6:54 PM 21.0 °F 9.9 °F 12.0 °F 68% 30.08 in 9.0 mi WSW 10.4 mph - 0.00 in Snow Light Snow
7:54 PM 21.0 °F 9.9 °F 14.0 °F 74% 30.09 in 7.0 mi WSW 10.4 mph - 0.00 in Snow Light Snow
8:54 PM 21.0 °F 8.6 °F 12.9 °F 71% 30.09 in 8.0 mi WSW 12.7 mph - 0.00 in Snow Light Snow
9:54 PM 21.0 °F 10.6 °F 12.9 °F 71% 30.07 in 8.0 mi WSW 9.2 mph - 0.00 in Snow Light Snow
10:54 PM 19.9 °F 8.6 °F 12.0 °F 71% 30.04 in 9.0 mi WSW 10.4 mph - 0.00 in Snow Light Snow
11:54 PM 19.9 °F 6.7 °F 10.9 °F 68% 30.03 in 9.0 mi SW 13.8 mph - 0.00 in Snow Light Snow